EWG29F EDDM-EDDH

Flight info

Callsign EWG29F
Flight time 0h 54m
Altitude 36000
Route INPUD3Q/08L INPUD Y102 UPALA M726 LASTO DCT ABGUS DCT DIRBO/N0387F230 T902 RARUP RARUP3P
Aircraft A321/M-SDE3FGHIRWY/LB1

Departure

Time 2026-05-04 17:40
Airport Munich Airport (EDDM)

Arrival

Time 2026-05-04 18:34
Airport Hamburg Helmut Schmidt Airport (EDDH)
Time Latitude Longitude Altitude Speed Heading
2026-05-04 17:15 48.35644 11.79274 1485 ft 0 kts 263°
2026-05-04 17:24 48.35645 11.79290 1473 ft 2 kts 261°
2026-05-04 17:25 48.35647 11.79314 1473 ft 2 kts 263°
2026-05-04 17:25 48.35650 11.79364 1473 ft 2 kts 266°
2026-05-04 17:26 48.35650 11.79414 1472 ft 2 kts 315°
2026-05-04 17:26 48.35639 11.79423 1471 ft 0 kts 352°
2026-05-04 17:31 48.35663 11.79418 1472 ft 3 kts 353°
2026-05-04 17:32 48.35743 11.79403 1480 ft 8 kts 353°
2026-05-04 17:33 48.35984 11.79335 1478 ft 0 kts 353°
2026-05-04 17:35 48.35999 11.79332 1482 ft 7 kts 352°
2026-05-04 17:36 48.36076 11.79294 1485 ft 14 kts 306°
2026-05-04 17:36 48.36080 11.79150 1485 ft 15 kts 264°
2026-05-04 17:36 48.36066 11.78954 1476 ft 23 kts 263°
2026-05-04 17:36 48.36046 11.78697 1480 ft 25 kts 263°
2026-05-04 17:37 48.36025 11.78434 1477 ft 25 kts 263°
2026-05-04 17:37 48.36004 11.78149 1472 ft 30 kts 263°
2026-05-04 17:37 48.35980 11.77844 1485 ft 30 kts 263°
2026-05-04 17:37 48.36013 11.77659 1480 ft 11 kts 341°
2026-05-04 17:38 48.36095 11.77670 1477 ft 18 kts
2026-05-04 17:38 48.36195 11.77807 1478 ft 21 kts 53°
2026-05-04 17:38 48.36287 11.77988 1475 ft 24 kts 53°
2026-05-04 17:38 48.36382 11.78208 1473 ft 25 kts 69°
2026-05-04 17:39 48.36445 11.78950 1483 ft 84 kts 83°
2026-05-04 17:39 48.36540 11.80193 1479 ft 153 kts 83°
2026-05-04 17:39 48.36682 11.81998 1754 ft 186 kts 82°
2026-05-04 17:40 48.36833 11.83910 2559 ft 184 kts 83°
2026-05-04 17:40 48.37061 11.85868 2862 ft 201 kts 67°
2026-05-04 17:40 48.38015 11.87473 3043 ft 219 kts 30°
2026-05-04 17:40 48.39558 11.87988 3105 ft 245 kts 354°
2026-05-04 17:41 48.41259 11.87185 3339 ft 267 kts 331°
2026-05-04 17:41 48.42649 11.85300 3895 ft 276 kts 304°
2026-05-04 17:41 48.43549 11.82720 4596 ft 278 kts 302°
2026-05-04 17:41 48.44700 11.80393 5336 ft 279 kts 311°
2026-05-04 17:42 48.46013 11.78287 6059 ft 280 kts 314°
2026-05-04 17:42 48.47391 11.76213 6775 ft 281 kts 315°
2026-05-04 17:42 48.48798 11.74158 7460 ft 282 kts 314°
2026-05-04 17:42 48.50365 11.72276 7815 ft 300 kts 328°
2026-05-04 17:43 48.52285 11.70762 7950 ft 324 kts 333°
2026-05-04 17:43 48.54412 11.69335 8137 ft 342 kts 335°
2026-05-04 17:43 48.56639 11.67922 8485 ft 355 kts 335°
2026-05-04 17:43 48.58969 11.66431 8625 ft 373 kts 335°
2026-05-04 17:44 48.61402 11.64828 8758 ft 389 kts 334°
2026-05-04 17:44 48.63915 11.63123 8970 ft 402 kts 334°
2026-05-04 17:44 48.66469 11.61346 9420 ft 407 kts 333°
2026-05-04 17:44 48.69046 11.59525 9926 ft 410 kts 333°
2026-05-04 17:45 48.71603 11.57705 10383 ft 413 kts 333°
2026-05-04 17:45 48.74211 11.55847 10838 ft 416 kts 333°
2026-05-04 17:45 48.76841 11.53976 11265 ft 419 kts 333°
2026-05-04 17:45 48.79493 11.52095 11722 ft 423 kts 333°
2026-05-04 17:46 48.82219 11.50386 12149 ft 428 kts 342°
2026-05-04 17:46 48.85167 11.49555 12587 ft 433 kts 350°
2026-05-04 17:46 48.88159 11.48894 13030 ft 436 kts 350°
2026-05-04 17:46 48.91172 11.48247 13466 ft 439 kts 351°
2026-05-04 17:47 48.94207 11.47606 13880 ft 442 kts 351°
2026-05-04 17:47 48.97262 11.46961 14291 ft 444 kts 350°
2026-05-04 17:47 49.00286 11.46317 14718 ft 446 kts 350°
2026-05-04 17:47 49.03362 11.45657 15163 ft 447 kts 350°
2026-05-04 17:48 49.06445 11.44990 15610 ft 448 kts 350°
2026-05-04 17:48 49.09530 11.44324 16091 ft 447 kts 350°
2026-05-04 17:48 49.12609 11.43658 16640 ft 446 kts 350°
2026-05-04 17:48 49.15675 11.42990 17175 ft 445 kts 349°
2026-05-04 17:49 49.18739 11.42323 17738 ft 444 kts 349°
2026-05-04 17:49 49.21792 11.41656 18288 ft 442 kts 349°
2026-05-04 17:49 49.24835 11.40992 18784 ft 441 kts 349°
2026-05-04 17:49 49.27868 11.40332 19275 ft 440 kts 349°
2026-05-04 17:50 49.30890 11.39671 19776 ft 438 kts 349°
2026-05-04 17:50 49.33869 11.39023 20227 ft 438 kts 350°
2026-05-04 17:50 49.36890 11.38470 20726 ft 438 kts 352°
2026-05-04 17:50 49.39922 11.38043 21229 ft 437 kts 353°
2026-05-04 17:51 49.42946 11.37699 21750 ft 436 kts 353°
2026-05-04 17:51 49.45968 11.37381 22272 ft 434 kts 354°
2026-05-04 17:51 49.48975 11.37059 22808 ft 432 kts 353°
2026-05-04 17:51 49.51968 11.36716 23297 ft 432 kts 353°
2026-05-04 17:52 49.54992 11.36346 23452 ft 439 kts 353°
2026-05-04 17:52 49.58051 11.35955 23702 ft 443 kts 352°
2026-05-04 17:52 49.61128 11.35555 23993 ft 445 kts 352°
2026-05-04 17:52 49.64183 11.35158 24301 ft 447 kts 352°
2026-05-04 17:53 49.67286 11.34755 24602 ft 449 kts 352°
2026-05-04 17:53 49.70405 11.34352 24912 ft 450 kts 352°
2026-05-04 17:53 49.73529 11.33952 25223 ft 452 kts 352°
2026-05-04 17:53 49.76668 11.33552 25531 ft 454 kts 352°
2026-05-04 17:54 49.79820 11.33148 25829 ft 455 kts 352°
2026-05-04 17:54 49.82982 11.32742 26137 ft 457 kts 352°
2026-05-04 17:54 49.86153 11.32331 26433 ft 458 kts 352°
2026-05-04 17:54 49.89340 11.31918 26717 ft 460 kts 352°
2026-05-04 17:55 49.92495 11.31511 27003 ft 462 kts 352°
2026-05-04 17:55 49.95704 11.31097 27291 ft 464 kts 352°
2026-05-04 17:55 49.98924 11.30682 27566 ft 465 kts 352°
2026-05-04 17:55 50.02150 11.30264 27960 ft 463 kts 352°
2026-05-04 17:56 50.05344 11.29848 28490 ft 459 kts 351°
2026-05-04 17:56 50.08514 11.29436 29040 ft 455 kts 351°
2026-05-04 17:56 50.11649 11.29031 29596 ft 450 kts 351°
2026-05-04 17:56 50.14752 11.28630 30139 ft 445 kts 351°
2026-05-04 17:57 50.17825 11.28230 30576 ft 443 kts 351°
2026-05-04 17:57 50.20901 11.27823 30789 ft 444 kts 351°
2026-05-04 17:57 50.23948 11.27414 31049 ft 445 kts 351°
2026-05-04 17:57 50.27035 11.27003 31294 ft 445 kts 351°
2026-05-04 17:58 50.30126 11.26599 31561 ft 445 kts 351°
2026-05-04 17:58 50.33207 11.26202 31891 ft 444 kts 351°
2026-05-04 17:58 50.36288 11.25805 32207 ft 444 kts 351°
2026-05-04 17:58 50.39362 11.25403 32523 ft 443 kts 351°
2026-05-04 17:59 50.42434 11.24996 32838 ft 443 kts 351°
2026-05-04 17:59 50.45502 11.24589 33142 ft 442 kts 351°
2026-05-04 17:59 50.51659 11.23764 33495 ft 447 kts 351°
2026-05-04 18:00 50.54767 11.23351 33638 ft 450 kts 351°
2026-05-04 18:00 50.57859 11.22945 33779 ft 453 kts 351°
2026-05-04 18:00 50.61010 11.22531 33923 ft 456 kts 351°
2026-05-04 18:00 50.64179 11.22111 34054 ft 458 kts 351°
2026-05-04 18:01 50.67358 11.21685 34183 ft 459 kts 351°
2026-05-04 18:01 50.70549 11.21253 34365 ft 460 kts 351°
2026-05-04 18:01 50.73731 11.20823 34552 ft 460 kts 351°
2026-05-04 18:02 50.80115 11.19966 34900 ft 460 kts 351°
2026-05-04 18:02 50.83257 11.19544 35081 ft 460 kts 351°
2026-05-04 18:02 50.86446 11.19117 35217 ft 461 kts 351°
2026-05-04 18:02 50.89645 11.18688 35346 ft 462 kts 351°
2026-05-04 18:03 50.92844 11.18257 35473 ft 463 kts 351°
2026-05-04 18:03 50.96059 11.17827 35601 ft 463 kts 351°
2026-05-04 18:03 50.99272 11.17401 35737 ft 464 kts 351°
2026-05-04 18:03 51.02485 11.16968 35894 ft 464 kts 351°
2026-05-04 18:04 51.08942 11.16091 35980 ft 469 kts 351°
2026-05-04 18:05 51.18680 11.14465 35982 ft 472 kts 349°
2026-05-04 18:05 51.25206 11.13213 35980 ft 472 kts 349°
2026-05-04 18:06 51.35005 11.11420 35986 ft 473 kts 349°
2026-05-04 18:06 51.41555 11.10248 35997 ft 474 kts 349°
2026-05-04 18:07 51.48063 11.09065 36002 ft 474 kts 349°
2026-05-04 18:07 51.54624 11.07866 36000 ft 473 kts 349°
2026-05-04 18:08 51.61052 11.06703 35974 ft 461 kts 349°
2026-05-04 18:08 51.67411 11.05545 35965 ft 460 kts 349°
2026-05-04 18:09 51.80077 11.03180 35969 ft 460 kts 349°
2026-05-04 18:10 51.86441 11.02013 35974 ft 460 kts 349°
2026-05-04 18:10 51.92807 11.00835 35980 ft 461 kts 349°
2026-05-04 18:11 51.99179 10.99646 35985 ft 461 kts 348°
2026-05-04 18:11 52.05556 10.98460 35993 ft 461 kts 348°
2026-05-04 18:12 52.11894 10.97269 35998 ft 462 kts 348°
2026-05-04 18:12 52.18274 10.96069 35996 ft 462 kts 348°
2026-05-04 18:13 52.24655 10.94866 35988 ft 462 kts 348°
2026-05-04 18:13 52.31006 10.93675 35122 ft 458 kts 348°
2026-05-04 18:14 52.34170 10.93080 34476 ft 458 kts 348°
2026-05-04 18:14 52.37345 10.92480 33787 ft 459 kts 347°
2026-05-04 18:14 52.40517 10.91875 32996 ft 460 kts 348°
2026-05-04 18:15 52.46861 10.90656 31350 ft 464 kts 348°
2026-05-04 18:15 52.53316 10.89417 29654 ft 469 kts 348°
2026-05-04 18:15 52.56541 10.88804 29003 ft 465 kts 348°
2026-05-04 18:16 52.59740 10.88199 28371 ft 461 kts 348°
2026-05-04 18:16 52.62911 10.87598 27762 ft 457 kts 348°
2026-05-04 18:16 52.66055 10.87000 27152 ft 453 kts 348°
2026-05-04 18:17 52.72261 10.85815 25967 ft 445 kts 348°
2026-05-04 18:17 52.75321 10.85227 25381 ft 441 kts 348°
2026-05-04 18:17 52.81352 10.84054 24936 ft 439 kts 348°
2026-05-04 18:18 52.84388 10.83459 24962 ft 440 kts 348°
2026-05-04 18:18 52.87431 10.82862 24960 ft 440 kts 348°
2026-05-04 18:18 52.90477 10.82266 24960 ft 440 kts 348°
2026-05-04 18:18 52.93516 10.81671 24958 ft 440 kts 348°
2026-05-04 18:19 52.99602 10.80490 24789 ft 442 kts 348°
2026-05-04 18:19 53.02641 10.79903 24131 ft 433 kts 348°
2026-05-04 18:19 53.05615 10.79328 23474 ft 429 kts 348°
2026-05-04 18:20 53.08568 10.78748 22708 ft 426 kts 348°
2026-05-04 18:20 53.11452 10.78182 21970 ft 421 kts 349°
2026-05-04 18:20 53.14341 10.77617 21244 ft 415 kts 349°
2026-05-04 18:20 53.17189 10.77060 20539 ft 410 kts 349°
2026-05-04 18:21 53.20030 10.76498 19848 ft 408 kts 349°
2026-05-04 18:21 53.22801 10.75955 19192 ft 397 kts 349°
2026-05-04 18:21 53.25531 10.75419 18556 ft 393 kts 350°
2026-05-04 18:21 53.28231 10.74886 17871 ft 388 kts 350°
2026-05-04 18:22 53.30888 10.74360 17072 ft 380 kts 350°
2026-05-04 18:22 53.33473 10.73847 16078 ft 369 kts 350°
2026-05-04 18:22 53.35991 10.73347 15130 ft 360 kts 350°
2026-05-04 18:22 53.38446 10.72861 14209 ft 351 kts 350°
2026-05-04 18:23 53.40816 10.72392 13264 ft 344 kts 350°
2026-05-04 18:23 53.43169 10.71924 12269 ft 337 kts 350°
2026-05-04 18:23 53.45480 10.71461 11301 ft 332 kts 349°
2026-05-04 18:23 53.47726 10.71010 10659 ft 318 kts 349°
2026-05-04 18:24 53.49880 10.70580 10058 ft 306 kts 349°
2026-05-04 18:24 53.52035 10.70144 9423 ft 326 kts 349°
2026-05-04 18:24 53.54343 10.69669 8762 ft 338 kts 350°
2026-05-04 18:24 53.56658 10.68951 7960 ft 335 kts 337°
2026-05-04 18:25 53.58614 10.67052 7253 ft 320 kts 315°
2026-05-04 18:25 53.59981 10.64227 6864 ft 312 kts 297°
2026-05-04 18:25 53.60729 10.60880 5843 ft 303 kts 277°
2026-05-04 18:25 53.60766 10.57425 5253 ft 286 kts 268°
2026-05-04 18:26 53.61067 10.54139 5082 ft 288 kts 291°
2026-05-04 18:26 53.61742 10.52205 5005 ft 291 kts 309°
2026-05-04 18:26 53.63034 10.50288 5009 ft 297 kts 322°
2026-05-04 18:26 53.64737 10.48346 5008 ft 296 kts 324°
2026-05-04 18:27 53.66455 10.46455 4930 ft 290 kts 324°
2026-05-04 18:27 53.68072 10.44688 4643 ft 267 kts 324°
2026-05-04 18:27 53.69607 10.43016 4016 ft 260 kts 325°
2026-05-04 18:27 53.71067 10.41401 3620 ft 245 kts 324°
2026-05-04 18:28 53.72428 10.39895 3478 ft 222 kts 324°
2026-05-04 18:28 53.73660 10.38537 3232 ft 205 kts 324°
2026-05-04 18:28 53.74826 10.37191 3002 ft 202 kts 316°
2026-05-04 18:28 53.75514 10.35192 3017 ft 200 kts 279°
2026-05-04 18:29 53.75440 10.32868 3016 ft 201 kts 255°
2026-05-04 18:29 53.75151 10.30565 3023 ft 200 kts 262°
2026-05-04 18:29 53.75049 10.28217 3013 ft 200 kts 269°
2026-05-04 18:29 53.75023 10.25868 3014 ft 200 kts 269°
2026-05-04 18:30 53.74197 10.21533 3019 ft 201 kts 232°
2026-05-04 18:30 53.73347 10.19811 2979 ft 181 kts 232°
2026-05-04 18:30 53.72561 10.18205 2802 ft 174 kts 232°
2026-05-04 18:31 53.71794 10.16639 2573 ft 172 kts 232°
2026-05-04 18:31 53.71034 10.15088 2362 ft 171 kts 232°
2026-05-04 18:31 53.70275 10.13540 2133 ft 171 kts 232°
2026-05-04 18:31 53.69513 10.11987 1901 ft 173 kts 232°
2026-05-04 18:32 53.68744 10.10420 1671 ft 174 kts 232°
2026-05-04 18:32 53.67982 10.08871 1430 ft 165 kts 233°
2026-05-04 18:32 53.67283 10.07452 1207 ft 150 kts 232°
2026-05-04 18:32 53.66630 10.06122 1003 ft 145 kts 233°
2026-05-04 18:33 53.66000 10.04841 813 ft 144 kts 233°
2026-05-04 18:33 53.65360 10.03530 628 ft 144 kts 234°
2026-05-04 18:33 53.64728 10.02228 401 ft 143 kts 233°
2026-05-04 18:33 53.64083 10.00944 222 ft 143 kts 232°
2026-05-04 18:34 53.63441 9.99666 51 ft 141 kts 233°
2026-05-04 18:34 53.62907 9.98560 51 ft 98 kts 230°
2026-05-04 18:34 53.62605 9.97946 52 ft 38 kts 229°
2026-05-04 18:34 53.62463 9.97801 50 ft 13 kts 156°
2026-05-04 18:35 53.62456 9.97810 51 ft 0 kts 139°
2026-05-04 18:35 53.62455 9.97812 51 ft 0 kts 139°
2026-05-04 18:35 53.62454 9.97812 51 ft 1 kts 139°
2026-05-04 18:35 53.62435 9.97849 51 ft 8 kts 126°
2026-05-04 18:36 53.62435 9.97983 51 ft 16 kts 75°
2026-05-04 18:36 53.62497 9.98169 51 ft 20 kts 51°
2026-05-04 18:36 53.62587 9.98349 51 ft 21 kts 49°
2026-05-04 18:36 53.62681 9.98537 51 ft 21 kts 50°
2026-05-04 18:37 53.62778 9.98736 51 ft 22 kts 50°
2026-05-04 18:37 53.62880 9.98942 51 ft 23 kts 50°
2026-05-04 18:37 53.62986 9.99155 51 ft 24 kts 50°
2026-05-04 18:37 53.63072 9.99343 48 ft 15 kts 54°
2026-05-04 18:38 53.63076 9.99352 49 ft 0 kts 54°
2026-05-04 18:38 53.63077 9.99353 50 ft 0 kts 54°
2026-05-04 18:39 53.63082 9.99365 51 ft 4 kts 54°
2026-05-04 18:39 53.63107 9.99427 52 ft 8 kts 55°
2026-05-04 18:40 53.63152 9.99531 51 ft 14 kts 52°
2026-05-04 18:40 53.63217 9.99673 51 ft 16 kts 65°
2026-05-04 18:40 53.63176 9.99799 51 ft 12 kts 150°
2026-05-04 18:40 53.63109 9.99858 51 ft 10 kts 153°
2026-05-04 18:41 53.63046 9.99914 51 ft 12 kts 153°
2026-05-04 18:41 53.62971 9.99978 51 ft 11 kts 151°
2026-05-04 18:41 53.62914 10.00064 51 ft 10 kts 92°
2026-05-04 18:41 53.62943 10.00153 51 ft 8 kts 79°
2026-05-04 18:42 53.62932 10.00261 51 ft 12 kts 108°
2026-05-04 18:42 53.62929 10.00274 51 ft 0 kts 108°